Hourly Weather Otrada

Today, 28 July, Wednesday

Time Temperature Precipitation Wind Pressure Humidity
00:00 +16°C° 0 mm 3 mps 755 mmHg 76%
01:00 +14°C° 0 mm 3 mps 755 mmHg 75%
02:00 +14°C° 0 mm 3 mps 755 mmHg 75%
03:00 +14°C° 0 mm 2 mps 755 mmHg 75%
04:00 +15°C° 0 mm 2 mps 756 mmHg 73%
05:00 +16°C° 0 mm 2 mps 756 mmHg 70%
06:00 +17°C° 0 mm 2 mps 756 mmHg 67%
07:00 +18°C° 0 mm 2 mps 756 mmHg 60%
08:00 +20°C° 0 mm 2 mps 756 mmHg 53%
09:00 +21°C° 0 mm 3 mps 756 mmHg 46%
10:00 +22°C° 0 mm 3 mps 756 mmHg 44%
11:00 +24°C° 0 mm 3 mps 756 mmHg 42%
12:00 +24°C° 0 mm 3 mps 755 mmHg 40%
13:00 +24°C° 0 mm 3 mps 755 mmHg 39%
14:00 +25°C° 0 mm 3 mps 755 mmHg 38%
15:00 +25°C° 0 mm 3 mps 755 mmHg 37%
16:00 +24°C° 0 mm 2 mps 755 mmHg 41%
17:00 +24°C° 0 mm 2 mps 755 mmHg 44%
18:00 +23°C° 0 mm 2 mps 755 mmHg 48%
19:00 +20°C° 0 mm 2 mps 755 mmHg 51%
20:00 +18°C° 0 mm 2 mps 755 mmHg 54%
21:00 +16°C° 0 mm 1 mps 755 mmHg 57%
22:00 +16°C° 0 mm 2 mps 755 mmHg 58%
23:00 +15°C° 0 mm 2 mps 754 mmHg 59%

Tomorrow, 29 July, Thursday

Time Temperature Precipitation Wind Pressure Humidity
00:00 +15°C° 0 mm 2 mps 754 mmHg 60%
01:00 +13°C° 0 mm 3 mps 754 mmHg 61%
02:00 +13°C° 0 mm 3 mps 754 mmHg 63%
03:00 +13°C° 0 mm 3 mps 754 mmHg 64%
04:00 +14°C° 0 mm 3 mps 754 mmHg 63%
05:00 +16°C° 0 mm 3 mps 754 mmHg 61%
06:00 +17°C° 0 mm 3 mps 753 mmHg 60%
07:00 +19°C° 0 mm 3 mps 753 mmHg 56%
08:00 +20°C° 0 mm 3 mps 753 mmHg 53%
09:00 +22°C° 0 mm 4 mps 753 mmHg 49%
10:00 +20°C° 0.3 mm 4 mps 752 mmHg 60%
11:00 +19°C° 0.3 mm 4 mps 752 mmHg 71%
12:00 +17°C° 0.3 mm 3 mps 752 mmHg 82%
13:00 +17°C° 0.6 mm 3 mps 752 mmHg 86%
14:00 +17°C° 0.6 mm 3 mps 751 mmHg 90%
15:00 +17°C° 0.6 mm 3 mps 751 mmHg 94%
16:00 +17°C° 0.1 mm 4 mps 750 mmHg 93%
17:00 +18°C° 0.1 mm 4 mps 750 mmHg 92%
18:00 +18°C° 0.1 mm 4 mps 749 mmHg 91%
19:00 +17°C° 0.4 mm 5 mps 749 mmHg 92%
20:00 +17°C° 0.4 mm 5 mps 748 mmHg 92%
21:00 +17°C° 0.4 mm 5 mps 748 mmHg 92%
22:00 +17°C° 0.3 mm 5 mps 748 mmHg 93%
23:00 +17°C° 0.3 mm 5 mps 747 mmHg 94%

Day after tomorrow, 30 July, Friday

Time Temperature Precipitation Wind Pressure Humidity
00:00 +19°C° 0.3 mm 6 mps 747 mmHg 95%
01:00 +17°C° 0 mm 5 mps 747 mmHg 96%
02:00 +17°C° 0 mm 5 mps 747 mmHg 96%
03:00 +17°C° 0 mm 5 mps 747 mmHg 97%
04:00 +17°C° 0 mm 5 mps 747 mmHg 96%
05:00 +19°C° 0 mm 5 mps 748 mmHg 94%
06:00 +19°C° 0 mm 5 mps 748 mmHg 93%
07:00 +20°C° 0 mm 5 mps 748 mmHg 87%
08:00 +21°C° 0 mm 4 mps 748 mmHg 81%
09:00 +22°C° 0 mm 4 mps 748 mmHg 74%
10:00 +25°C° 0 mm 4 mps 749 mmHg 67%
11:00 +26°C° 0 mm 4 mps 749 mmHg 60%
12:00 +28°C° 0 mm 4 mps 749 mmHg 53%
13:00 +28°C° 0 mm 4 mps 749 mmHg 51%
14:00 +29°C° 0 mm 4 mps 749 mmHg 49%
15:00 +30°C° 0 mm 4 mps 749 mmHg 47%
16:00 +29°C° 0 mm 3 mps 748 mmHg 52%
17:00 +28°C° 0 mm 3 mps 748 mmHg 57%
18:00 +27°C° 0 mm 2 mps 748 mmHg 62%
19:00 +26°C° 0 mm 2 mps 748 mmHg 63%
20:00 +25°C° 0 mm 2 mps 748 mmHg 65%
21:00 +24°C° 0 mm 3 mps 748 mmHg 66%
22:00 +22°C° 0.3 mm 3 mps 748 mmHg 72%
23:00 +21°C° 0.3 mm 3 mps 748 mmHg 78%

31 July, Saturday

Time Temperature Precipitation Wind Pressure Humidity
00:00 +20°C° 0.3 mm 2 mps 748 mmHg 84%
01:00 +20°C° 0.4 mm 2 mps 748 mmHg 87%
02:00 +19°C° 0.4 mm 2 mps 748 mmHg 90%
03:00 +19°C° 0.4 mm 2 mps 748 mmHg 94%
04:00 +20°C° 0 mm 2 mps 748 mmHg 93%
05:00 +20°C° 0 mm 3 mps 748 mmHg 91%
06:00 +21°C° 0 mm 3 mps 748 mmHg 90%
07:00 +22°C° 0 mm 4 mps 748 mmHg 84%
08:00 +23°C° 0 mm 4 mps 748 mmHg 78%
09:00 +26°C° 0 mm 5 mps 748 mmHg 72%
10:00 +27°C° 0 mm 5 mps 748 mmHg 67%
11:00 +27°C° 0 mm 5 mps 748 mmHg 61%
12:00 +28°C° 0 mm 5 mps 748 mmHg 56%
13:00 +29°C° 0 mm 5 mps 748 mmHg 54%
14:00 +29°C° 0 mm 5 mps 748 mmHg 51%
15:00 +30°C° 0 mm 5 mps 748 mmHg 49%
16:00 +29°C° 0 mm 4 mps 748 mmHg 52%
17:00 +28°C° 0 mm 3 mps 748 mmHg 56%
18:00 +27°C° 0 mm 3 mps 748 mmHg 59%
19:00 +26°C° 0 mm 3 mps 749 mmHg 62%
20:00 +24°C° 0 mm 3 mps 749 mmHg 65%
21:00 +22°C° 0 mm 3 mps 750 mmHg 67%
22:00 +22°C° 0 mm 3 mps 750 mmHg 67%
23:00 +21°C° 0 mm 3 mps 750 mmHg 67%

1 August, Sunday

Time Temperature Precipitation Wind Pressure Humidity
00:00 +20°C° 0 mm 3 mps 750 mmHg 66%
01:00 +20°C° 0 mm 3 mps 750 mmHg 66%
02:00 +20°C° 0 mm 3 mps 750 mmHg 66%
03:00 +20°C° 0 mm 4 mps 750 mmHg 66%
04:00 +20°C° 0 mm 3 mps 751 mmHg 66%
05:00 +21°C° 0 mm 3 mps 751 mmHg 66%
06:00 +21°C° 0 mm 3 mps 752 mmHg 66%
07:00 +24°C° 0 mm 3 mps 752 mmHg 60%
08:00 +25°C° 0 mm 3 mps 752 mmHg 53%
09:00 +27°C° 0 mm 4 mps 752 mmHg 46%
10:00 +28°C° 0 mm 4 mps 752 mmHg 42%
11:00 +29°C° 0 mm 4 mps 752 mmHg 39%
12:00 +30°C° 0 mm 4 mps 752 mmHg 36%
13:00 +30°C° 0 mm 4 mps 752 mmHg 35%
14:00 +30°C° 0 mm 4 mps 752 mmHg 34%
15:00 +32°C° 0 mm 4 mps 752 mmHg 34%
16:00 +30°C° 0 mm 4 mps 752 mmHg 39%
17:00 +29°C° 0 mm 3 mps 752 mmHg 44%
18:00 +28°C° 0 mm 2 mps 752 mmHg 49%
19:00 +26°C° 0 mm 2 mps 752 mmHg 51%
20:00 +24°C° 0 mm 2 mps 752 mmHg 53%
21:00 +23°C° 0 mm 1 mps 752 mmHg 56%
22:00 +21°C° 0 mm 2 mps 752 mmHg 57%
23:00 +21°C° 0 mm 2 mps 752 mmHg 58%

2 August, Monday

Time Temperature Precipitation Wind Pressure Humidity
00:00 +21°C° 0 mm 3 mps 752 mmHg 58%
01:00 +20°C° 0 mm 3 mps 752 mmHg 59%
02:00 +20°C° 0 mm 3 mps 752 mmHg 60%
03:00 +20°C° 0 mm 3 mps 752 mmHg 61%
04:00 +21°C° 0 mm 3 mps 752 mmHg 61%
05:00 +22°C° 0 mm 3 mps 752 mmHg 62%
06:00 +24°C° 0 mm 2 mps 753 mmHg 62%
07:00 +26°C° 0 mm 3 mps 753 mmHg 56%
08:00 +28°C° 0 mm 4 mps 753 mmHg 49%
09:00 +30°C° 0 mm 4 mps 752 mmHg 43%
10:00 +32°C° 0 mm 4 mps 752 mmHg 40%
11:00 +33°C° 0 mm 3 mps 752 mmHg 38%
12:00 +34°C° 0 mm 3 mps 752 mmHg 36%
13:00 +34°C° 0 mm 3 mps 752 mmHg 35%
14:00 +34°C° 0 mm 3 mps 752 mmHg 34%
15:00 +35°C° 0 mm 3 mps 751 mmHg 33%
16:00 +34°C° 0 mm 2 mps 751 mmHg 37%
17:00 +32°C° 0 mm 1 mps 751 mmHg 41%
18:00 +29°C° 0 mm 0 mps 751 mmHg 45%
19:00 +29°C° 0.2 mm 1 mps 751 mmHg 50%
20:00 +27°C° 0.2 mm 2 mps 751 mmHg 54%
21:00 +25°C° 0.2 mm 2 mps 751 mmHg 59%
22:00 +24°C° 0.4 mm 2 mps 751 mmHg 64%
23:00 +23°C° 0.4 mm 2 mps 751 mmHg 69%
Show more